OPTUS C1

Last updated on Sat Jun 21 2025 00:02:42 GMT+0000 (Coordinated Universal Time)

1 27831U 03028B 25171.53124628 -.00000144 00000+0 00000+0 0 9999 2 27831 5.9804 73.8032 0005493 12.6066 169.5415 1.00270752 49439
UTC large
Height (km)
Speed (km/s)
/
Latitude / Longitude
Inclination (degrees)
Orbital Period (minutes)
Azimuth
Elevation
Range (km)
Doppler Factor

Next 0 passes for location: London (51.5072 / 0.1276)

Sorry there are no passes over London.